User: anonymous   Login
Location: Clinton NY
(43.0598°N, 75.3602°W)
Time: 20:24:41
(UTC-05:00)
Language:

ISS - Orbit

View from above orbital plane
View from above orbital plane
View from above satellite
View from above satellite

Ground track
Ground track

The orbit data is extracted from the following two-line orbital elements,

1 25544U 98067A   16042.75340508  .00029888  00000-0  44813-3 0  9993
2 25544  51.6438 328.5448 0006988 104.2242 306.1298 15.54647514985316
Epoch (UTC): 11 February 2016 18:04:54
Eccentricity: 0.0006988
inclination: 51.6438°
perigee height: 398 km
apogee height: 408 km
right ascension of ascending node: 328.5448°
argument of perigee: 104.2242°
revolutions per day: 15.54647514
mean anomaly at epoch: 306.1298°
orbit number at epoch: 98531

The dashed part of the orbit path shows where the satellite is in the earth's shadow,  

DLR